Regional Weather Roundup
Issued by NWS

Home | Current Version | Previous Version | Text Only | Print | Product List | Glossary Off
Versions: 1 2 3 4 5 6 7 8 9 10 11 12 13 14 15 16 17 18 19 20 21 22 23 24 25 26 27 28 29 30 31 32 33 34 35 36 37 38 39 40 41 42 43 44 45 46 47 48 49 50

000
ASUS43 KIND 220759
RWRIN

WEATHER ROUNDUP FOR INDIANA
NATIONAL WEATHER SERVICE INDIANAPOLIS IN
400 AM EDT SAT JUL 22 2017

NOTE: "FAIR" INDICATES FEW OR NO CLOUDS BELOW 12,000 FEET WITH NO
SIGNIFICANT WEATHER AND/OR OBSTRUCTIONS TO VISIBILITY.

* - STATION DOES NOT REPORT WEATHER SUCH AS PRECIPITATION OR FOG.

+ - STATION NOT QUALITY CONTROLLED BY THE NATIONAL WEATHER SERVICE.
    USE DATA WITH CAUTION...ESPECIALLY DEWPOINT AND RELATIVE
    HUMIDITY OBSERVATIONS.

INZ001>003-010>013-019-020-220900-
NORTHWEST INDIANA

CITY           SKY/WX    TMP DP  RH WIND       PRES   REMARKS
MICHIGAN CITY+ LGT RAIN  70  70 100 S3        29.86R
MONTICELLO +   RAIN      71  70  95 CALM      29.90R
RENSSELAER +   LGT RAIN  72  68  88 SE7       29.86F
VALPARAISO     CLOUDY    72  72 100 SE6       29.85F

$$

LMZ046-743>745-220900-
SOUTHERN LAKE MICHIGAN

STATION/POSITION TIME  TEMP    WIND        PRES    WAVE
                       AIR SEA DIR/SP/G            HT
                 (UTC) (F)     (DEG/KT/KT) (MB)    (FT)
BURNS HARBOR     0740   72     180/  7/ 13 1010.8S
MICHIGAN CITY    0730   71     170/ 13/ 15   N/A
5NW MICH CITY    0750   72 74  210/ 10/ 12   N/A     1

$$

INZ004-005-014>016-021>024-220900-
NORTH CENTRAL INDIANA

CITY           SKY/WX    TMP DP  RH WIND       PRES   REMARKS
GOSHEN         LGT RAIN  72  68  87 S3        29.87R
SOUTH BEND     LGT RAIN  71  71 100 S3        29.87R

$$

INZ006>009-017-018-025>027-220900-
NORTHEAST INDIANA

CITY           SKY/WX    TMP DP  RH WIND       PRES   REMARKS
FORT WAYNE     TSTM      73  70  90 N9        29.84F
KENDALLVILLE + RAIN      71  71 100 SE6       29.90R

$$

INZ028-029-035-036-043>045-051>053-220900-
WEST CENTRAL INDIANA

CITY           SKY/WX    TMP DP  RH WIND       PRES   REMARKS
LAFAYETTE      TSTM      71  71 100 S8        29.89F
TERRE HAUTE    PTCLDY    80  75  84 S6        29.88R

$$

INZ030>032-037>040-046>048-054>057-064-065-220900-
CENTRAL INDIANA

CITY           SKY/WX    TMP DP  RH WIND       PRES   REMARKS
GREENWOOD *+   CLOUDY    79  75  87 SW3       29.90R
INDIANAPOLIS   CLOUDY    78  76  93 SW6       29.89
-EAGLE CREEK   CLOUDY    78  75  90 NW13G20   29.92R
KOKOMO +       LGT RAIN  72  71  97 NW5       29.93R
MT COMFORT *+  CLOUDY    75  73  94 S8        29.89S
SHELBYVILLE    MOCLDY    79  74  84 SW5       29.89S

$$

INZ033-034-041-042-049-050-058-059-220900-
EAST CENTRAL INDIANA

CITY           SKY/WX    TMP DP  RH WIND       PRES   REMARKS
MUNCIE         CLOUDY    78  73  84 S8        29.88R
RICHMOND +     CLOUDY    72  72 100 S8        29.91F

$$

INZ060-061-067>069-081>083-085>088-220900-
SOUTHWEST INDIANA

CITY           SKY/WX    TMP DP  RH WIND       PRES   REMARKS
EVANSVILLE     CLEAR     80  75  84 SW6       29.91R
HUNTINGBURG *+ CLEAR     78  75  90 S3        29.91S

$$

INZ062-063-066-070>080-084-089>092-220900-
SOUTH CENTRAL AND SOUTHEAST INDIANA

CITY           SKY/WX    TMP DP  RH WIND       PRES   REMARKS
BLOOMINGTON    CLEAR     81  73  76 W6        29.90S
MADISON *+     MOCLDY    77  73  88 S3        29.93F
SEYMOUR +      PTCLDY    81  75  83 S7        29.89F

$$




USA.gov is the U.S. government's official web portal to all federal, state and local government web resources and services.